Regional Weather Roundup
Issued by NWS Grand Forks, ND

Home | Current Version | Previous Version | Graphics & Text | Print | Product List | Glossary On
Versions: 1 2 3 4 5 6 7 8 9 10 11 12 13 14 15 16 17 18 19 20 21 22 23 24 25 26 27 28 29 30 31 32 33 34 35 36 37 38 39 40 41 42 43 44 45 46 47 48 49 50
000
ASUS43 KFGF 260810
RWRFGF
PRAIRIE TO PINES  WEATHER ROUNDUP
NATIONAL WEATHER SERVICE EASTERN NORTH DAKOTA/GRAND FORKS ND
300 AM CDT TUE JUL 26 2016

 **SATELLITE DATA USED TO AUGMENT SKY COVER AT AUTOMATED STATIONS**
 *****  WEATHER ACROSS EASTERN NORTH DAKOTA  *****

CITY           SKY/WX    TMP DP  RH WIND       PRES   REMARKS
GRAND FORKS    CLEAR     67  63  87 N6        29.91S
GRAND FRKS AFB CLEAR     66  65  97 N5        29.93R
GRAND FRKS NWS   N/A     68 N/A N/A VRB5        N/A
DEVILS LAKE    CLEAR     67  65  93 NE5       29.98R
FARGO          PTCLDY    72  64  76 S9        29.92S
WAHPETON ARPT  MOSUNNY   66  63  88 SE7       29.94S
$$

 ***** WEATHER ACROSS CENTRAL AND WESTERN NORTH DAKOTA  *****

CITY           SKY/WX    TMP DP  RH WIND       PRES   REMARKS
BISMARCK       CLOUDY    72  69  90 NE9       29.95S
MINOT          CLEAR     68  64  87 W6        29.99R
JAMESTOWN      CLOUDY    69  68  96 N6        29.93S
MINOT AFB      CLEAR     58  57  95 W3        29.98R
GARRISON         N/A     67  65  93 N6        30.00R
WILLISTON      CLEAR     64  58  80 N6        30.01R
DICKINSON      CLEAR     63  62  97 NE9       29.99F
HETTINGER      CLEAR     71  63  75 NE15      29.99F
$$

 *****  OTHER AIRPORT OBSERVATIONS IN OUR AREA  *****

CITY           SKY/WX    TMP DP  RH WIND       PRES   REMARKS
WALHALLA       NOT AVBL
GRAFTON AIRPOR FAIR      68  68 100 N7        29.94F
VALLEY CITY AR   N/A     72  63  73 CALM      29.95S
CANDO          NOT AVBL
CAVALIER APRT  FAIR      64  64 100 N3        29.94S
GWINNER        FAIR      73  59  60 S14       29.95S
SHEYENNE NWR     N/A     73  60  63 W6        29.95S
ROLLA          FAIR      63  61  94 NW6       30.01S
 ***** THE ABOVE OBSERVATIONS ARE NON NWS ARE NOT QUALITY
       CONTROLLED AND MAY MIS-REPORT RAIN FOR SNOW...
$$

  *****  WEATHER ACROSS NORTHERN MINNESOTA  *****

CITY           SKY/WX    TMP DP  RH WIND       PRES   REMARKS
FLAG ISLAND    CLEAR     70  63  78 CALM      29.94F
WARROAD        CLEAR     63  57  82 CALM      29.96S
ROSEAU         CLEAR     63  57  82 CALM      29.96S
HALLOCK        CLEAR     64  63  94 CALM      29.93S
THF RVR FALLS  CLEAR     69  65  86 E7        29.95S
BAUDETTE       CLOUDY    61  61 100 CALM      29.96F FOG
WASKISH        MOCLDY    66  64  94 CALM      29.96S
CROOKSTON      CLEAR     72  66  83 E7        29.93S
GREENBUSH NDAW   N/A     61  59  94 NE1         N/A
$$
  *****  WEATHER ACROSS CENTRAL AND WEST MINNESOTA  *****

CITY           SKY/WX    TMP DP  RH WIND       PRES   REMARKS
FOSSTON        CLEAR     64  61  88 N3        29.96R
BEMIDJI        MOCLDY    72  64  78 SW5       29.96F
PARK RAPIDS    CLOUDY    72  64  76 S5        29.98F
ELBOW LAKE     FAIR      68  64  86 S9        29.99R
WADENA         PTCLDY    68  63  83 S7        29.98F
DETROIT LAKES  CLEAR     73  63  68 S8        29.98S
MOORHEAD       CLEAR     68  64  88 S8        29.94S
FERGUS FALLS   PTCLDY    70  63  78 MISG      29.98S
MORRIS MN      CLEAR     68  64  88 S9        29.98S
STAPLES        PTCLDY    66  63  88 S5        29.99F
$$
  *****  WEATHER ELSEWHERE ACROSS MINNESOTA  *****

CITY           SKY/WX    TMP DP  RH WIND       PRES   REMARKS
DULUTH         CLEAR     68  64  87 W8        30.01S
INTRNTL FALLS  CLOUDY    62  60  93 CALM      29.96F
ELY            CLOUDY    63  59  88 CALM      30.00S
CLOQUET        CLEAR     70  63  78 SW5       30.01F
WHEATON        NOT AVBL
BRAINERD       CLOUDY    71  66  84 S8        30.00F
HIBBING        MOCLDY    59  59 100 CALM      29.99F
ALEXANDRIA     PTCLDY    73  63  70 SW14      30.02F
SAINT CLOUD    PTCLDY    67  66  97 S5        30.02F
MINNEAPOLIS    CLEAR     74  64  71 SW3       30.04S
$$

  *****  WEATHER ACROSS SOUTH DAKOTA  *****

CITY           SKY/WX    TMP DP  RH WIND       PRES   REMARKS
SIOUX FALLS    CLEAR     71  63  75 S7        30.08S
BROOKINGS      PTCLDY    67  63  87 S9        30.06F
WATERTOWN      CLEAR     70  62  76 S9        30.03F
HURON          CLEAR     67  60  78 S8        30.01S
SISSETON         N/A     78  59  51 SW26G33   29.93S
ABERDEEN       PTCLDY    68  58  70 S13       29.96S
MITCHELL       CLEAR     68  62  81 S8        30.04S
PIERRE         CLEAR     75  60  59 S14       29.97F
MOBRIDGE       MOCLDY    77  59  53 SE10      29.93S
RAPID CITY     CLEAR     70  59  68 SE7       30.02F
$$

  *****  SOME WEATHER IN NEARBY STATES *****

CITY           SKY/WX    TMP DP  RH WIND       PRES   REMARKS
GLASGOW MT     MOCLDY    68  61  78 E10       30.02S
GREAT FALLS MT MOCLDY    62  48  60 W5        30.08R
CHEYENNE WY    CLOUDY    61  54  77 W9        30.20F
SCOTTSBLUFF NE CLEAR     68  61  78 NE8       30.07F
OMAHA NE       PTCLDY    67  64  90 N3        30.08F
DES MOINES IA  CLEAR     72  66  81 CALM      30.07S
DAVENPORT IA   CLEAR     63  62  97 NW3       30.06R
CHICAGO IL     PTCLDY    72  64  76 CALM      30.03S
EAU CLAIRE WI  FAIR      67  65  93 SW3       30.05R
LA CROSSE WI   PTCLDY    68  66  93 SE5       30.06R
$$

  *****  SOME NATIONAL WEATHER *****

CITY           SKY/WX    TMP DP  RH WIND       PRES   REMARKS
LA GUARDIA NY  CLEAR     77  68  73 W7        29.86R
RALEIGH NC     PTCLDY    79  72  79 SW8       29.99S
ATLANTA GA     PTCLDY    76  74  93 CALM      30.06S
NEW ORLEANS LA PTCLDY    81  76  84 CALM      29.89F
OKLAHOMA CITY  RAIN      73  71  93 S6        30.02F
ALBUQUERQUE NM CLOUDY    72  58  61 E18G24    30.26F
SALT LAKE CITY PTCLDY    82  40  22 SE12      30.02S
LOS ANGELES CA MOCLDY    69  64  84 W7        29.92S
BOISE ID       CLEAR     75  34  22 SE7       29.93R
SEATTLE WA     MOCLDY    64  59  83 SW7       30.10R
$$

*** WEATHER ACROSS MANITOBA...SASKATCHEWAN AND ONTARIO ***
                ***ONTARIO***

CITY           SKY/WX    TMP DP  RH WIND       PRES   REMARKS
GERALDTON      CLEAR     63  57  82 W6        29.86S
THUNDER BAY    CLEAR     61  59  94 W3        29.93S
SIOUX LOOKOUT  PTCLDY    64  59  82 NW5       29.93S
TORONTO        CLEAR     66  57  72 NW10      29.93R
BIG TROUT LK   NOT AVBL
PICKLE LAKE    NOT AVBL
DRYDEN         CLEAR     63  59  88 W6        29.95S
KENORA         CLEAR     68  61  77 NW7       29.96S
$$
                *** MANITOBA***

CITY           SKY/WX    TMP DP  RH WIND       PRES   REMARKS
BRANDON        MOCLDY    66  63  88 N10       30.00R
DAUPHIN        PTCLDY    59  55  88 W6        30.00R
ISLAND LAKE    CLEAR     63  55  77 NW12G17   29.84R
PILOT MOUND      N/A     59  57  94 SE3         N/A
THE PAS        CLEAR     63  54  72 N14       30.01R
THOMPSON       CLOUDY    57  50  77 NW8G17    29.90R
WINNIPEG       CLEAR     63  63 100 CALM      29.95S
LYNN LAKE      CLEAR     50  45  81 MISG      30.01R
CHURCHILL      LGT RAIN  46  46 100 NE10      29.82R
GILLAM         PTCLDY    57  54  88 NW18G25   29.75R
$$
                ***SASKATCHEWAN***

CITY           SKY/WX    TMP DP  RH WIND       PRES   REMARKS
ESTEVAN        PTCLDY    64  63  94 N7        30.04R
KINDERSLEY     CLOUDY    63  52  67 E10       30.08F
LLOYDMINSTER   CLEAR     55  50  82 S8        30.08S
PRINCE ALBERT  CLEAR     50  48  93 VRB2      30.07R
REGINA         CLEAR     57  55  94 NW2       30.09R
YORKTON        CLEAR     57  54  88 W7        30.05R
N. BATTLEFORD  CLEAR     50  50 100 CALM      30.10S
LA RONGE       CLEAR     48  45  87 CALM      30.08R
SASKATOON      CLEAR     52  48  87 W2        30.09S
SWIFT CURRENT  CLEAR     59  55  88 SE7       30.10R
$$
NOTE: THESE ARE AUTOMATED STATIONS WITH LIMITED QUALITY CONTROL
      "FAIR" INDICATES FEW OR NO CLOUDS BELOW 12,000 FEET WITH NO
      SIGNIFICANT WEATHER AND/OR OBSTRUCTIONS TO VISIBILITY.
      SKY/WX - SKY CONDITION AND SIGNIFICANT WEATHER.
      TMP - AIR TEMPERATURE.    DP   - DEWPOINT TEMPERATURE.
      RH  - RELATIVE HUMIDITY.  PRES - PRESSURE.
      HX  - HEAT INDEX.         WCI  - WIND CHILL INDEX.
$




USA.gov is the U.S. government's official web portal to all federal, state and local government web resources and services.